Location: Unspecified
(36.5840°N, 0.0000°E)
Time: 04:50:04
(UTC+00:00)

CZ-6A R/B DEB - Visible Passes

Search period start: 05 April 2026 00:00
Search period end: 15 April 2026 00:00
Orbit: 793 x 850 km, 89.0° (Epoch: 28 March)

Date Brightness Start Highest point End Pass type
(mag) Time Alt. Az. Time Alt. Az. Time Alt. Az.
5 Apr ? 04:56:13 10° ESE 04:59:49 19° ENE 05:03:25 10° NE visible
5 Apr ? 18:55:47 10° NNW 19:00:01 24° W 19:04:20 10° SW visible
6 Apr ? 04:37:13 10° E 04:39:31 13° ENE 04:41:48 10° NE visible
9 Apr ? 19:17:51 10° WNW 19:18:51 10° WNW 19:19:51 10° W visible
10 Apr ? 04:53:51 10° SE 04:58:21 29° E 05:02:52 10° NNE visible
10 Apr ? 18:55:27 10° NW 18:58:34 16° WNW 19:01:42 10° WSW visible
11 Apr ? 04:34:10 10° SE 04:38:00 21° ENE 04:41:49 10° NNE visible
12 Apr ? 04:14:57 10° ESE 04:17:41 14° ENE 04:20:24 10° NE visible
